iso_date,epoch_date,Year,Hour,Min,DOY,POS_DOY,Lat,Lon,BP,Ts,Ta,has_bp,has_ts,has_ta,BuoyID,Buoy_Type,Buoy_Owner,Logistics,Hemisphere
2014-03-19T21:00:00Z,1395262800,2014,21,0,78.875,254.667,74.308,-176.6091,-999.00,-999.00,-999.0,yes,no,yes,300234061217550,IMB,CRREL,unknown,North
2014-03-19T22:00:28Z,1395266429,2014,22,0,78.917,254.667,74.308,-176.6091,1037.4,-999.00,-24.14,yes,no,yes,300234061217550,IMB,CRREL,unknown,North
2014-03-19T22:59:31Z,1395269971,2014,23,0,78.958,254.667,74.308,-176.6091,1038.07,-999.00,-24.1,yes,no,yes,300234061217550,IMB,CRREL,unknown,North
2014-03-20T00:00:00Z,1395273600,2014,0,0,79.0,79.0,73.5054,-137.3395,1038.3,-999.00,-24.23,yes,no,yes,300234061217550,IMB,CRREL,unknown,North
2014-03-20T01:00:28Z,1395277229,2014,1,0,79.042,79.0,73.5054,-137.3395,1038.66,-999.00,-24.74,yes,no,yes,300234061217550,IMB,CRREL,unknown,North
2014-03-20T01:59:31Z,1395280771,2014,2,0,79.083,79.0,73.5054,-137.3395,1039.2,-999.00,-26.32,yes,no,yes,300234061217550,IMB,CRREL,unknown,North
2014-03-20T03:00:00Z,1395284400,2014,3,0,79.125,79.0,73.5054,-137.3395,1039.48,-999.00,-27.58,yes,no,yes,300234061217550,IMB,CRREL,unknown,North
2014-03-20T04:00:28Z,1395288029,2014,4,0,79.167,79.167,73.5044,-137.3383,1039.95,-999.00,-28.64,yes,no,yes,300234061217550,IMB,CRREL,unknown,North
2014-03-20T04:59:31Z,1395291571,2014,5,0,79.208,79.167,73.5044,-137.3383,1040.43,-999.00,-29.29,yes,no,yes,300234061217550,IMB,CRREL,unknown,North
2014-03-20T06:00:00Z,1395295200,2014,6,0,79.25,79.167,73.5044,-137.3383,1040.98,-999.00,-30.13,yes,no,yes,300234061217550,IMB,CRREL,unknown,North
2014-03-20T07:00:28Z,1395298829,2014,7,0,79.292,79.167,73.5044,-137.3383,1040.98,-999.00,-30.05,yes,no,yes,300234061217550,IMB,CRREL,unknown,North
2014-03-20T07:59:31Z,1395302371,2014,8,0,79.333,79.333,73.5032,-137.3286,1040.84,-999.00,-29.79,yes,no,yes,300234061217550,IMB,CRREL,unknown,North
2014-03-20T09:00:00Z,1395306000,2014,9,0,79.375,79.333,73.5032,-137.3286,1041.11,-999.00,-29.79,yes,no,yes,300234061217550,IMB,CRREL,unknown,North
2014-03-20T10:00:28Z,1395309629,2014,10,0,79.417,79.333,73.5032,-137.3286,1041.52,-999.00,-31.3,yes,no,yes,300234061217550,IMB,CRREL,unknown,North
2014-03-20T10:59:31Z,1395313171,2014,11,0,79.458,79.333,73.5032,-137.3286,1041.72,-999.00,-31.12,yes,no,yes,300234061217550,IMB,CRREL,unknown,North
2014-03-20T12:00:00Z,1395316800,2014,12,0,79.5,79.5,73.5015,-137.3107,1041.25,-999.00,-30.79,yes,no,yes,300234061217550,IMB,CRREL,unknown,North
2014-03-20T13:00:28Z,1395320429,2014,13,0,79.542,79.5,73.5015,-137.3107,1040.98,-999.00,-30.67,yes,no,yes,300234061217550,IMB,CRREL,unknown,North
2014-03-20T13:59:31Z,1395323971,2014,14,0,79.583,79.5,73.5015,-137.3107,1040.98,-999.00,-30.71,yes,no,yes,300234061217550,IMB,CRREL,unknown,North
2014-03-20T15:00:00Z,1395327600,2014,15,0,79.625,79.5,73.5015,-137.3107,1040.29,-999.00,-29.63,yes,no,yes,300234061217550,IMB,CRREL,unknown,North
2014-03-20T16:00:28Z,1395331229,2014,16,0,79.667,79.667,73.5011,-137.2886,1039.95,-999.00,-28.36,yes,no,yes,300234061217550,IMB,CRREL,unknown,North
2014-03-20T16:59:31Z,1395334771,2014,17,0,79.708,79.667,73.5011,-137.2886,1039.88,-999.00,-26.27,yes,no,yes,300234061217550,IMB,CRREL,unknown,North
2014-03-20T18:00:00Z,1395338400,2014,18,0,79.75,79.667,73.5011,-137.2886,1039.07,-999.00,-22.89,yes,no,yes,300234061217550,IMB,CRREL,unknown,North
2014-03-20T19:00:28Z,1395342029,2014,19,0,79.792,79.667,73.5011,-137.2886,1039.27,-999.00,-21.19,yes,no,yes,300234061217550,IMB,CRREL,unknown,North
2014-03-20T19:59:31Z,1395345571,2014,20,0,79.833,79.833,73.5046,-137.2405,1039.2,-999.00,-20.58,yes,no,yes,300234061217550,IMB,CRREL,unknown,North
2014-03-20T21:00:00Z,1395349200,2014,21,0,79.875,79.833,73.5046,-137.2405,1038.66,-999.00,-19.96,yes,no,yes,300234061217550,IMB,CRREL,unknown,North
2014-03-20T22:00:28Z,1395352829,2014,22,0,79.917,79.833,73.5046,-137.2405,1038.45,-999.00,-19.13,yes,no,yes,300234061217550,IMB,CRREL,unknown,North
2014-03-20T22:59:31Z,1395356371,2014,23,0,79.958,79.833,73.5046,-137.2405,1038.25,-999.00,-18.14,yes,no,yes,300234061217550,IMB,CRREL,unknown,North
2014-03-21T00:00:00Z,1395360000,2014,0,0,80.0,80.0,73.5056,-137.1658,1037.77,-999.00,-17.74,yes,no,yes,300234061217550,IMB,CRREL,unknown,North
2014-03-21T01:00:28Z,1395363629,2014,1,0,80.042,80.0,73.5056,-137.1658,1037.57,-999.00,-17.49,yes,no,yes,300234061217550,IMB,CRREL,unknown,North
2014-03-21T01:59:31Z,1395367171,2014,2,0,80.083,80.0,73.5056,-137.1658,1037.43,-999.00,-17.73,yes,no,yes,300234061217550,IMB,CRREL,unknown,North
2014-03-21T03:00:00Z,1395370800,2014,3,0,80.125,80.0,73.5056,-137.1658,1037.16,-999.00,-17.81,yes,no,yes,300234061217550,IMB,CRREL,unknown,North
2014-03-21T04:00:28Z,1395374429,2014,4,0,80.167,80.167,73.5004,-137.1045,1037.23,-999.00,-18.11,yes,no,yes,300234061217550,IMB,CRREL,unknown,North
2014-03-21T04:59:31Z,1395377971,2014,5,0,80.208,80.167,73.5004,-137.1045,1037.09,-999.00,-18.08,yes,no,yes,300234061217550,IMB,CRREL,unknown,North
2014-03-21T06:00:00Z,1395381600,2014,6,0,80.25,80.167,73.5004,-137.1045,1036.75,-999.00,-18.64,yes,no,yes,300234061217550,IMB,CRREL,unknown,North
2014-03-21T07:00:28Z,1395385229,2014,7,0,80.292,80.167,73.5004,-137.1045,1036.61,-999.00,-19.76,yes,no,yes,300234061217550,IMB,CRREL,unknown,North
2014-03-21T07:59:31Z,1395388771,2014,8,0,80.333,80.333,73.4983,-137.0718,1036.61,-999.00,-20.06,yes,no,yes,300234061217550,IMB,CRREL,unknown,North
2014-03-21T09:00:00Z,1395392400,2014,9,0,80.375,80.333,73.4983,-137.0718,1036.27,-999.00,-20.65,yes,no,yes,300234061217550,IMB,CRREL,unknown,North
2014-03-21T10:00:28Z,1395396029,2014,10,0,80.417,80.333,73.4983,-137.0718,1035.93,-999.00,-20.57,yes,no,yes,300234061217550,IMB,CRREL,unknown,North
2014-03-21T10:59:31Z,1395399571,2014,11,0,80.458,80.333,73.4983,-137.0718,1035.52,-999.00,-20.16,yes,no,yes,300234061217550,IMB,CRREL,unknown,North
2014-03-21T12:00:00Z,1395403200,2014,12,0,80.5,80.5,73.4988,-137.0303,1034.7,-999.00,-19.03,yes,no,yes,300234061217550,IMB,CRREL,unknown,North
2014-03-21T13:00:28Z,1395406829,2014,13,0,80.542,80.5,73.4988,-137.0303,1034.09,-999.00,-18.35,yes,no,yes,300234061217550,IMB,CRREL,unknown,North
2014-03-21T13:59:31Z,1395410371,2014,14,0,80.583,80.5,73.4988,-137.0303,1033.48,-999.00,-17.59,yes,no,yes,300234061217550,IMB,CRREL,unknown,North
2014-03-21T15:00:00Z,1395414000,2014,15,0,80.625,80.5,73.4988,-137.0303,1032.11,-999.00,-16.81,yes,no,yes,300234061217550,IMB,CRREL,unknown,North
2014-03-21T16:00:28Z,1395417629,2014,16,0,80.667,80.667,73.5015,-136.9691,1031.43,-999.00,-16.4,yes,no,yes,300234061217550,IMB,CRREL,unknown,North
2014-03-21T16:59:31Z,1395421171,2014,17,0,80.708,80.667,73.5015,-136.9691,1030.48,-999.00,-16.0,yes,no,yes,300234061217550,IMB,CRREL,unknown,North
2014-03-21T18:00:00Z,1395424800,2014,18,0,80.75,80.667,73.5015,-136.9691,1029.32,-999.00,-15.63,yes,no,yes,300234061217550,IMB,CRREL,unknown,North
2014-03-21T19:00:28Z,1395428429,2014,19,0,80.792,80.667,73.5015,-136.9691,1028.29,-999.00,-14.73,yes,no,yes,300234061217550,IMB,CRREL,unknown,North
2014-03-21T19:59:31Z,1395431971,2014,20,0,80.833,80.833,73.5068,-136.8884,1028.09,-999.00,-13.84,yes,no,yes,300234061217550,IMB,CRREL,unknown,North
2014-03-21T21:00:00Z,1395435600,2014,21,0,80.875,80.833,73.5068,-136.8884,1027.2,-999.00,-13.69,yes,no,yes,300234061217550,IMB,CRREL,unknown,North
2014-03-21T22:00:28Z,1395439229,2014,22,0,80.917,80.833,73.5068,-136.8884,1026.79,-999.00,-13.51,yes,no,yes,300234061217550,IMB,CRREL,unknown,North
2014-03-21T22:59:31Z,1395442771,2014,23,0,80.958,80.833,73.5068,-136.8884,1026.73,-999.00,-13.07,yes,no,yes,300234061217550,IMB,CRREL,unknown,North
2014-03-22T00:00:00Z,1395446400,2014,0,0,81.0,81.0,73.4946,-136.7991,1026.79,-999.00,-12.75,yes,no,yes,300234061217550,IMB,CRREL,unknown,North
2014-03-22T01:00:28Z,1395450029,2014,1,0,81.042,81.0,73.4946,-136.7991,1026.86,-999.00,-12.2,yes,no,yes,300234061217550,IMB,CRREL,unknown,North
2014-03-22T01:59:31Z,1395453571,2014,2,0,81.083,81.0,73.4946,-136.7991,1027.34,-999.00,-11.42,yes,no,yes,300234061217550,IMB,CRREL,unknown,North
2014-03-22T03:00:00Z,1395457200,2014,3,0,81.125,81.0,73.4946,-136.7991,1027.34,-999.00,-11.3,yes,no,yes,300234061217550,IMB,CRREL,unknown,North
2014-03-22T04:00:28Z,1395460829,2014,4,0,81.167,81.167,73.4681,-136.7668,1027.95,-999.00,-11.74,yes,no,yes,300234061217550,IMB,CRREL,unknown,North
2014-03-22T04:59:31Z,1395464371,2014,5,0,81.208,81.167,73.4681,-136.7668,1028.63,-999.00,-13.55,yes,no,yes,300234061217550,IMB,CRREL,unknown,North
2014-03-22T06:00:00Z,1395468000,2014,6,0,81.25,81.167,73.4681,-136.7668,1029.04,-999.00,-16.13,yes,no,yes,300234061217550,IMB,CRREL,unknown,North
2014-03-22T07:00:28Z,1395471629,2014,7,0,81.292,81.167,73.4681,-136.7668,1029.86,-999.00,-18.96,yes,no,yes,300234061217550,IMB,CRREL,unknown,North
2014-03-22T07:59:31Z,1395475171,2014,8,0,81.333,81.333,73.4464,-136.7816,1030.88,-999.00,-20.79,yes,no,yes,300234061217550,IMB,CRREL,unknown,North
2014-03-22T09:00:00Z,1395478800,2014,9,0,81.375,81.333,73.4464,-136.7816,1031.63,-999.00,-22.18,yes,no,yes,300234061217550,IMB,CRREL,unknown,North
2014-03-22T10:00:28Z,1395482429,2014,10,0,81.417,81.333,73.4464,-136.7816,1032.18,-999.00,-23.04,yes,no,yes,300234061217550,IMB,CRREL,unknown,North
2014-03-22T10:59:31Z,1395485971,2014,11,0,81.458,81.333,73.4464,-136.7816,1032.52,-999.00,-24.0,yes,no,yes,300234061217550,IMB,CRREL,unknown,North
2014-03-22T12:00:00Z,1395489600,2014,12,0,81.5,81.5,73.4364,-136.7998,1033.2,-999.00,-23.05,yes,no,yes,300234061217550,IMB,CRREL,unknown,North
2014-03-22T13:00:28Z,1395493229,2014,13,0,81.542,81.5,73.4364,-136.7998,1033.48,-999.00,-22.21,yes,no,yes,300234061217550,IMB,CRREL,unknown,North
2014-03-22T13:59:31Z,1395496771,2014,14,0,81.583,81.5,73.4364,-136.7998,1034.16,-999.00,-22.3,yes,no,yes,300234061217550,IMB,CRREL,unknown,North
2014-03-22T15:00:00Z,1395500400,2014,15,0,81.625,81.5,73.4364,-136.7998,1034.84,-999.00,-22.33,yes,no,yes,300234061217550,IMB,CRREL,unknown,North
2014-03-22T16:00:28Z,1395504029,2014,16,0,81.667,81.667,73.4234,-136.8262,1035.52,-999.00,-22.39,yes,no,yes,300234061217550,IMB,CRREL,unknown,North
2014-03-22T16:59:31Z,1395507571,2014,17,0,81.708,81.667,73.4234,-136.8262,1036.48,-999.00,-22.7,yes,no,yes,300234061217550,IMB,CRREL,unknown,North
2014-03-22T18:00:00Z,1395511200,2014,18,0,81.75,81.667,73.4234,-136.8262,1037.29,-999.00,-22.77,yes,no,yes,300234061217550,IMB,CRREL,unknown,North
2014-03-22T19:00:28Z,1395514829,2014,19,0,81.792,81.667,73.4234,-136.8262,1037.91,-999.00,-22.96,yes,no,yes,300234061217550,IMB,CRREL,unknown,North
2014-03-22T19:59:31Z,1395518371,2014,20,0,81.833,81.833,73.4177,-136.8498,1038.25,-999.00,-22.57,yes,no,yes,300234061217550,IMB,CRREL,unknown,North
2014-03-22T21:00:00Z,1395522000,2014,21,0,81.875,81.833,73.4177,-136.8498,1039.34,-999.00,-22.35,yes,no,yes,300234061217550,IMB,CRREL,unknown,North
2014-03-22T22:00:28Z,1395525629,2014,22,0,81.917,81.833,73.4177,-136.8498,1040.02,-999.00,-22.21,yes,no,yes,300234061217550,IMB,CRREL,unknown,North
2014-03-22T22:59:31Z,1395529171,2014,23,0,81.958,81.833,73.4177,-136.8498,1040.43,-999.00,-21.42,yes,no,yes,300234061217550,IMB,CRREL,unknown,North
2014-03-23T00:00:00Z,1395532800,2014,0,0,82.0,82.0,73.4137,-136.852,1040.98,-999.00,-22.14,yes,no,yes,300234061217550,IMB,CRREL,unknown,North
2014-03-23T01:00:28Z,1395536429,2014,1,0,82.042,82.0,73.4137,-136.852,1041.25,-999.00,-20.92,yes,no,yes,300234061217550,IMB,CRREL,unknown,North
2014-03-23T01:59:31Z,1395539971,2014,2,0,82.083,82.0,73.4137,-136.852,1041.79,-999.00,-22.07,yes,no,yes,300234061217550,IMB,CRREL,unknown,North
2014-03-23T03:00:00Z,1395543600,2014,3,0,82.125,82.0,73.4137,-136.852,1042.07,-999.00,-24.22,yes,no,yes,300234061217550,IMB,CRREL,unknown,North
2014-03-23T04:00:28Z,1395547229,2014,4,0,82.167,82.167,73.4091,-136.8554,1042.07,-999.00,-26.06,yes,no,yes,300234061217550,IMB,CRREL,unknown,North
2014-03-23T04:59:31Z,1395550771,2014,5,0,82.208,82.167,73.4091,-136.8554,1042.34,-999.00,-27.44,yes,no,yes,300234061217550,IMB,CRREL,unknown,North
2014-03-23T06:00:00Z,1395554400,2014,6,0,82.25,82.167,73.4091,-136.8554,1042.34,-999.00,-28.17,yes,no,yes,300234061217550,IMB,CRREL,unknown,North
2014-03-23T07:00:28Z,1395558029,2014,7,0,82.292,82.167,73.4091,-136.8554,1042.47,-999.00,-28.77,yes,no,yes,300234061217550,IMB,CRREL,unknown,North
2014-03-23T07:59:31Z,1395561571,2014,8,0,82.333,82.333,73.4082,-136.8557,1042.68,-999.00,-28.88,yes,no,yes,300234061217550,IMB,CRREL,unknown,North
2014-03-23T09:00:00Z,1395565200,2014,9,0,82.375,82.333,73.4082,-136.8557,1042.34,-999.00,-28.51,yes,no,yes,300234061217550,IMB,CRREL,unknown,North
2014-03-23T10:00:28Z,1395568829,2014,10,0,82.417,82.333,73.4082,-136.8557,1041.93,-999.00,-28.05,yes,no,yes,300234061217550,IMB,CRREL,unknown,North
2014-03-23T10:59:31Z,1395572371,2014,11,0,82.458,82.333,73.4082,-136.8557,1041.59,-999.00,-27.75,yes,no,yes,300234061217550,IMB,CRREL,unknown,North
2014-03-23T12:00:00Z,1395576000,2014,12,0,82.5,82.5,73.4102,-136.8397,1041.32,-999.00,-26.55,yes,no,yes,300234061217550,IMB,CRREL,unknown,North
2014-03-23T13:00:28Z,1395579629,2014,13,0,82.542,82.5,73.4102,-136.8397,1041.11,-999.00,-26.23,yes,no,yes,300234061217550,IMB,CRREL,unknown,North
2014-03-23T13:59:31Z,1395583171,2014,14,0,82.583,82.5,73.4102,-136.8397,1040.5,-999.00,-25.71,yes,no,yes,300234061217550,IMB,CRREL,unknown,North
2014-03-23T15:00:00Z,1395586800,2014,15,0,82.625,82.5,73.4102,-136.8397,1039.61,-999.00,-23.55,yes,no,yes,300234061217550,IMB,CRREL,unknown,North
2014-03-23T16:00:28Z,1395590429,2014,16,0,82.667,82.667,73.4133,-136.8196,1038.86,-999.00,-22.67,yes,no,yes,300234061217550,IMB,CRREL,unknown,North
2014-03-23T16:59:31Z,1395593971,2014,17,0,82.708,82.667,73.4133,-136.8196,1038.45,-999.00,-20.79,yes,no,yes,300234061217550,IMB,CRREL,unknown,North
2014-03-23T18:00:00Z,1395597600,2014,18,0,82.75,82.667,73.4133,-136.8196,1037.57,-999.00,-19.17,yes,no,yes,300234061217550,IMB,CRREL,unknown,North
2014-03-23T19:00:28Z,1395601229,2014,19,0,82.792,82.667,73.4133,-136.8196,1037.02,-999.00,-17.04,yes,no,yes,300234061217550,IMB,CRREL,unknown,North
2014-03-23T19:59:31Z,1395604771,2014,20,0,82.833,82.833,73.4191,-136.7906,1036.27,-999.00,-16.4,yes,no,yes,300234061217550,IMB,CRREL,unknown,North
2014-03-23T21:00:00Z,1395608400,2014,21,0,82.875,82.833,73.4191,-136.7906,1035.25,-999.00,-15.55,yes,no,yes,300234061217550,IMB,CRREL,unknown,North
2014-03-23T22:00:28Z,1395612029,2014,22,0,82.917,82.833,73.4191,-136.7906,1034.84,-999.00,-16.06,yes,no,yes,300234061217550,IMB,CRREL,unknown,North
2014-03-23T22:59:31Z,1395615571,2014,23,0,82.958,82.833,73.4191,-136.7906,1033.75,-999.00,-15.63,yes,no,yes,300234061217550,IMB,CRREL,unknown,North
2014-03-24T00:00:00Z,1395619200,2014,0,0,83.0,83.0,73.4258,-136.7377,1032.52,-999.00,-16.0,yes,no,yes,300234061217550,IMB,CRREL,unknown,North
2014-03-24T01:00:28Z,1395622829,2014,1,0,83.042,83.0,73.4258,-136.7377,1031.29,-999.00,-16.09,yes,no,yes,300234061217550,IMB,CRREL,unknown,North
2014-03-24T01:59:31Z,1395626371,2014,2,0,83.083,83.0,73.4258,-136.7377,1030.34,-999.00,-15.92,yes,no,yes,300234061217550,IMB,CRREL,unknown,North
2014-03-24T03:00:00Z,1395630000,2014,3,0,83.125,83.0,73.4258,-136.7377,1028.98,-999.00,-15.39,yes,no,yes,300234061217550,IMB,CRREL,unknown,North
2014-03-24T04:00:28Z,1395633629,2014,4,0,83.167,83.167,73.4282,-136.6847,1028.16,-999.00,-14.85,yes,no,yes,300234061217550,IMB,CRREL,unknown,North
2014-03-24T04:59:31Z,1395637171,2014,5,0,83.208,83.167,73.4282,-136.6847,1027.34,-999.00,-14.13,yes,no,yes,300234061217550,IMB,CRREL,unknown,North
2014-03-24T06:00:00Z,1395640800,2014,6,0,83.25,83.167,73.4282,-136.6847,1026.79,-999.00,-14.5,yes,no,yes,300234061217550,IMB,CRREL,unknown,North
2014-03-24T07:00:28Z,1395644429,2014,7,0,83.292,83.167,73.4282,-136.6847,1026.79,-999.00,-15.04,yes,no,yes,300234061217550,IMB,CRREL,unknown,North
2014-03-24T07:59:31Z,1395647971,2014,8,0,83.333,83.333,73.4227,-136.6526,1027.0,-999.00,-17.15,yes,no,yes,300234061217550,IMB,CRREL,unknown,North
2014-03-24T09:00:00Z,1395651600,2014,9,0,83.375,83.333,73.4227,-136.6526,1027.48,-999.00,-18.15,yes,no,yes,300234061217550,IMB,CRREL,unknown,North
2014-03-24T10:00:28Z,1395655229,2014,10,0,83.417,83.333,73.4227,-136.6526,1028.29,-999.00,-18.57,yes,no,yes,300234061217550,IMB,CRREL,unknown,North
2014-03-24T10:59:31Z,1395658771,2014,11,0,83.458,83.333,73.4227,-136.6526,1028.98,-999.00,-19.9,yes,no,yes,300234061217550,IMB,CRREL,unknown,North
2014-03-24T12:00:00Z,1395662400,2014,12,0,83.5,83.5,73.4118,-136.6474,1029.73,-999.00,-21.0,yes,no,yes,300234061217550,IMB,CRREL,unknown,North
2014-03-24T13:00:28Z,1395666029,2014,13,0,83.542,83.5,73.4118,-136.6474,1030.61,-999.00,-21.74,yes,no,yes,300234061217550,IMB,CRREL,unknown,North
2014-03-24T13:59:31Z,1395669571,2014,14,0,83.583,83.5,73.4118,-136.6474,1031.29,-999.00,-22.32,yes,no,yes,300234061217550,IMB,CRREL,unknown,North
2014-03-24T15:00:00Z,1395673200,2014,15,0,83.625,83.5,73.4118,-136.6474,1031.98,-999.00,-23.29,yes,no,yes,300234061217550,IMB,CRREL,unknown,North
2014-03-24T16:00:28Z,1395676829,2014,16,0,83.667,83.667,73.3986,-136.6628,1033.07,-999.00,-23.26,yes,no,yes,300234061217550,IMB,CRREL,unknown,North
2014-03-24T16:59:31Z,1395680371,2014,17,0,83.708,83.667,73.3986,-136.6628,1033.75,-999.00,-22.97,yes,no,yes,300234061217550,IMB,CRREL,unknown,North
2014-03-24T18:00:00Z,1395684000,2014,18,0,83.75,83.667,73.3986,-136.6628,1034.5,-999.00,-22.85,yes,no,yes,300234061217550,IMB,CRREL,unknown,North
2014-03-24T19:00:28Z,1395687629,2014,19,0,83.792,83.667,73.3986,-136.6628,1035.25,-999.00,-22.19,yes,no,yes,300234061217550,IMB,CRREL,unknown,North
2014-03-24T19:59:31Z,1395691171,2014,20,0,83.833,83.833,73.391,-136.6825,1035.93,-999.00,-21.67,yes,no,yes,300234061217550,IMB,CRREL,unknown,North
2014-03-24T21:00:00Z,1395694800,2014,21,0,83.875,83.833,73.391,-136.6825,1036.75,-999.00,-20.98,yes,no,yes,300234061217550,IMB,CRREL,unknown,North
2014-03-24T22:00:28Z,1395698429,2014,22,0,83.917,83.833,73.391,-136.6825,1036.82,-999.00,-20.89,yes,no,yes,300234061217550,IMB,CRREL,unknown,North
2014-03-24T22:59:31Z,1395701971,2014,23,0,83.958,83.833,73.391,-136.6825,1037.09,-999.00,-20.55,yes,no,yes,300234061217550,IMB,CRREL,unknown,North
2014-03-25T00:00:00Z,1395705600,2014,0,0,84.0,84.0,73.3875,-136.6845,1037.29,-999.00,-20.39,yes,no,yes,300234061217550,IMB,CRREL,unknown,North
2014-03-25T01:00:28Z,1395709229,2014,1,0,84.042,84.0,73.3875,-136.6845,1037.29,-999.00,-20.67,yes,no,yes,300234061217550,IMB,CRREL,unknown,North
2014-03-25T01:59:31Z,1395712771,2014,2,0,84.083,84.0,73.3875,-136.6845,1037.29,-999.00,-21.46,yes,no,yes,300234061217550,IMB,CRREL,unknown,North
2014-03-25T03:00:00Z,1395716400,2014,3,0,84.125,84.0,73.3875,-136.6845,1037.02,-999.00,-21.84,yes,no,yes,300234061217550,IMB,CRREL,unknown,North
2014-03-25T04:00:28Z,1395720029,2014,4,0,84.167,84.167,73.3862,-136.6823,1037.36,-999.00,-24.21,yes,no,yes,300234061217550,IMB,CRREL,unknown,North
2014-03-25T04:59:31Z,1395723571,2014,5,0,84.208,84.167,73.3862,-136.6823,1037.5,-999.00,-24.61,yes,no,yes,300234061217550,IMB,CRREL,unknown,North
2014-03-25T06:00:00Z,1395727200,2014,6,0,84.25,84.167,73.3862,-136.6823,1037.29,-999.00,-24.61,yes,no,yes,300234061217550,IMB,CRREL,unknown,North
2014-03-25T07:00:28Z,1395730829,2014,7,0,84.292,84.167,73.3862,-136.6823,1036.88,-999.00,-25.78,yes,no,yes,300234061217550,IMB,CRREL,unknown,North
2014-03-25T07:59:31Z,1395734371,2014,8,0,84.333,84.333,73.3858,-136.6847,1036.61,-999.00,-24.88,yes,no,yes,300234061217550,IMB,CRREL,unknown,North
2014-03-25T09:00:00Z,1395738000,2014,9,0,84.375,84.333,73.3858,-136.6847,1036.82,-999.00,-26.82,yes,no,yes,300234061217550,IMB,CRREL,unknown,North
2014-03-25T10:00:28Z,1395741629,2014,10,0,84.417,84.333,73.3858,-136.6847,1036.48,-999.00,-27.09,yes,no,yes,300234061217550,IMB,CRREL,unknown,North
2014-03-25T10:59:31Z,1395745171,2014,11,0,84.458,84.333,73.3858,-136.6847,1036.27,-999.00,-26.25,yes,no,yes,300234061217550,IMB,CRREL,unknown,North
2014-03-25T12:00:00Z,1395748800,2014,12,0,84.5,84.5,73.3859,-136.6829,1036.27,-999.00,-26.53,yes,no,yes,300234061217550,IMB,CRREL,unknown,North
2014-03-25T13:00:28Z,1395752429,2014,13,0,84.542,84.5,73.3859,-136.6829,1036.07,-999.00,-26.89,yes,no,yes,300234061217550,IMB,CRREL,unknown,North
2014-03-25T13:59:31Z,1395755971,2014,14,0,84.583,84.5,73.3859,-136.6829,1035.66,-999.00,-26.93,yes,no,yes,300234061217550,IMB,CRREL,unknown,North
2014-03-25T15:00:00Z,1395759600,2014,15,0,84.625,84.5,73.3859,-136.6829,1035.25,-999.00,-25.76,yes,no,yes,300234061217550,IMB,CRREL,unknown,North
2014-03-25T16:00:28Z,1395763229,2014,16,0,84.667,84.667,73.386,-136.6825,1034.91,-999.00,-26.61,yes,no,yes,300234061217550,IMB,CRREL,unknown,North
2014-03-25T16:59:31Z,1395766771,2014,17,0,84.708,84.667,73.386,-136.6825,1034.43,-999.00,-24.83,yes,no,yes,300234061217550,IMB,CRREL,unknown,North
2014-03-25T18:00:00Z,1395770400,2014,18,0,84.75,84.667,73.386,-136.6825,1034.02,-999.00,-22.91,yes,no,yes,300234061217550,IMB,CRREL,unknown,North
2014-03-25T19:00:28Z,1395774029,2014,19,0,84.792,84.667,73.386,-136.6825,1033.88,-999.00,-21.34,yes,no,yes,300234061217550,IMB,CRREL,unknown,North
2014-03-25T19:59:31Z,1395777571,2014,20,0,84.833,84.833,73.3872,-136.6795,1033.48,-999.00,-19.6,yes,no,yes,300234061217550,IMB,CRREL,unknown,North
2014-03-25T21:00:00Z,1395781200,2014,21,0,84.875,84.833,73.3872,-136.6795,1033.0,-999.00,-18.44,yes,no,yes,300234061217550,IMB,CRREL,unknown,North
2014-03-25T22:00:28Z,1395784829,2014,22,0,84.917,84.833,73.3872,-136.6795,1032.79,-999.00,-17.51,yes,no,yes,300234061217550,IMB,CRREL,unknown,North
2014-03-25T22:59:31Z,1395788371,2014,23,0,84.958,84.833,73.3872,-136.6795,1032.32,-999.00,-17.11,yes,no,yes,300234061217550,IMB,CRREL,unknown,North
2014-03-26T00:00:00Z,1395792000,2014,0,0,85.0,85.0,73.3901,-136.6636,1031.5,-999.00,-17.46,yes,no,yes,300234061217550,IMB,CRREL,unknown,North
2014-03-26T01:00:28Z,1395795629,2014,1,0,85.042,85.0,73.3901,-136.6636,1030.75,-999.00,-17.65,yes,no,yes,300234061217550,IMB,CRREL,unknown,North
2014-03-26T01:59:31Z,1395799171,2014,2,0,85.083,85.0,73.3901,-136.6636,1030.2,-999.00,-17.54,yes,no,yes,300234061217550,IMB,CRREL,unknown,North
2014-03-26T03:00:00Z,1395802800,2014,3,0,85.125,85.0,73.3901,-136.6636,1029.79,-999.00,-19.14,yes,no,yes,300234061217550,IMB,CRREL,unknown,North
2014-03-26T04:00:28Z,1395806429,2014,4,0,85.167,85.167,73.391,-136.655,1029.11,-999.00,-21.78,yes,no,yes,300234061217550,IMB,CRREL,unknown,North
2014-03-26T04:59:31Z,1395809971,2014,5,0,85.208,85.167,73.391,-136.655,1028.57,-999.00,-22.55,yes,no,yes,300234061217550,IMB,CRREL,unknown,North
2014-03-26T06:00:00Z,1395813600,2014,6,0,85.25,85.167,73.391,-136.655,1028.16,-999.00,-23.34,yes,no,yes,300234061217550,IMB,CRREL,unknown,North
2014-03-26T07:00:28Z,1395817229,2014,7,0,85.292,85.167,73.391,-136.655,1027.61,-999.00,-23.27,yes,no,yes,300234061217550,IMB,CRREL,unknown,North
2014-03-26T07:59:31Z,1395820771,2014,8,0,85.333,85.333,73.3913,-136.655,1027.07,-999.00,-23.15,yes,no,yes,300234061217550,IMB,CRREL,unknown,North
2014-03-26T09:00:00Z,1395824400,2014,9,0,85.375,85.333,73.3913,-136.655,1026.45,-999.00,-23.59,yes,no,yes,300234061217550,IMB,CRREL,unknown,North
2014-03-26T10:00:28Z,1395828029,2014,10,0,85.417,85.333,73.3913,-136.655,1025.98,-999.00,-23.67,yes,no,yes,300234061217550,IMB,CRREL,unknown,North
2014-03-26T10:59:31Z,1395831571,2014,11,0,85.458,85.333,73.3913,-136.655,1025.84,-999.00,-24.0,yes,no,yes,300234061217550,IMB,CRREL,unknown,North
2014-03-26T12:00:00Z,1395835200,2014,12,0,85.5,85.5,73.3914,-136.6548,1025.57,-999.00,-25.08,yes,no,yes,300234061217550,IMB,CRREL,unknown,North
2014-03-26T13:00:28Z,1395838829,2014,13,0,85.542,85.5,73.3914,-136.6548,1025.02,-999.00,-24.64,yes,no,yes,300234061217550,IMB,CRREL,unknown,North
2014-03-26T13:59:31Z,1395842371,2014,14,0,85.583,85.5,73.3914,-136.6548,1024.61,-999.00,-25.15,yes,no,yes,300234061217550,IMB,CRREL,unknown,North
2014-03-26T15:00:00Z,1395846000,2014,15,0,85.625,85.5,73.3914,-136.6548,1024.48,-999.00,-25.26,yes,no,yes,300234061217550,IMB,CRREL,unknown,North